Tracking 29892 objects as of 21-Nov-2024
HD Live streaming from Space Station
objects crossing your sky now

STARLINK-1612

Track STARLINK-1612 now!
10-day predictions
STARLINK-1612 is classified as:


NORAD ID: 46164
Int'l Code: 2020-057AZ
Perigee: 553.3 km
Apogee: 555.4 km
Inclination: 53.1 °
Period: 95.6 minutes
Semi major axis: 6925 km
RCS: Unknown
Launch date: August 18, 2020
Source: United States (US)
Launch site: AIR FORCE EASTERN TEST RANGE (AFETR)
Your satellite tracking list
Your tracking list is empty




NASA's NSSDC Master Catalog

Two Line Element Set (TLE):
1 46164U 20057AZ  24324.95136747  .00017199  00000-0  11708-2 0  9998
2 46164  53.0545 247.8003 0001464 107.5950 252.5199 15.06396861236336
Source of the keplerian elements: AFSPC